| time (UTC) | temp C | wind direction | speed KPH | gust KPH | rain 1hr cm | rain 24hr cm | rain mn cm | humidity % | barometer mb |
| 20260507185604 | 28 | 77 | 3.2 | 9.7 | 0.00 | 0.00 | 0.00 | 32 | 1020.7 |
| 20260507185103 | 28 | 77 | 3.2 | 9.7 | 0.00 | 0.00 | 0.00 | 32 | 1021.0 |
| 20260507184604 | 28 | 77 | 3.2 | 9.7 | 0.00 | 0.00 | 0.00 | 32 | 1021.0 |
| 20260507184104 | 27 | 77 | 3.2 | 9.7 | 0.00 | 0.00 | 0.00 | 32 | 1021.1 |
| 20260507183603 | 27 | 77 | 3.2 | 9.7 | 0.00 | 0.00 | 0.00 | 33 | 1021.1 |
| 20260507183103 | 27 | 77 | 3.2 | 9.7 | 0.00 | 0.00 | 0.00 | 33 | 1021.2 |
| 20260507182604 | 28 | 77 | 3.2 | 9.7 | 0.00 | 0.00 | 0.00 | 33 | 1021.2 |
| 20260507182104 | 27 | 77 | 3.2 | 9.7 | 0.00 | 0.00 | 0.00 | 33 | 1021.2 |
| 20260507181604 | 27 | 77 | 3.2 | 9.7 | 0.00 | 0.00 | 0.00 | 33 | 1021.2 |
| 20260507181104 | 27 | 77 | 3.2 | 9.7 | 0.00 | 0.00 | 0.00 | 34 | 1021.3 |
| 20260507180604 | 27 | 77 | 3.2 | 9.7 | 0.00 | 0.00 | 0.00 | 34 | 1021.4 |
| 20260507180104 | 27 | 77 | 3.2 | 9.7 | 0.00 | 0.00 | 0.00 | 33 | 1021.4 |
| 20260507175603 | 27 | 77 | 3.2 | 9.7 | 0.00 | 0.00 | 0.00 | 34 | 1021.5 |
| 20260507174604 | 27 | 77 | 3.2 | 9.7 | 0.00 | 0.00 | 0.00 | 34 | 1021.6 |
| 20260507173604 | 26 | 77 | 3.2 | 9.7 | 0.00 | 0.00 | 0.00 | 36 | 1021.6 |
| 20260507173104 | 26 | 77 | 3.2 | 9.7 | 0.00 | 0.00 | 0.00 | 35 | 1021.7 |
| 20260507172604 | 26 | 77 | 3.2 | 9.7 | 0.00 | 0.00 | 0.00 | 36 | 1021.7 |
| 20260507172104 | 26 | 77 | 3.2 | 9.7 | 0.00 | 0.00 | 0.00 | 36 | 1021.8 |
| 20260507171104 | 26 | 77 | 3.2 | 9.7 | 0.00 | 0.00 | 0.00 | 37 | 1021.8 |
| 20260507170604 | 26 | 77 | 3.2 | 9.7 | 0.00 | 0.00 | 0.00 | 37 | 1021.9 |
| 20260507170104 | 26 | 77 | 3.2 | 9.7 | 0.00 | 0.00 | 0.00 | 38 | 1021.9 |
| 20260507165104 | 26 | 77 | 3.2 | 9.7 | 0.00 | 0.00 | 0.00 | 39 | 1022.0 |
| 20260507164104 | 25 | 77 | 3.2 | 9.7 | 0.00 | 0.00 | 0.00 | 40 | 1022.1 |
| 20260507163105 | 25 | 77 | 3.2 | 9.7 | 0.00 | 0.00 | 0.00 | 41 | 1022.0 |
| 20260507162604 | 25 | 77 | 3.2 | 9.7 | 0.00 | 0.00 | 0.00 | 41 | 1022.0 |
| 20260507162104 | 25 | 77 | 3.2 | 9.7 | 0.00 | 0.00 | 0.00 | 42 | 1022.0 |
| 20260507161603 | 25 | 77 | 3.2 | 9.7 | 0.00 | 0.00 | 0.00 | 42 | 1022.0 |
| 20260507161104 | 25 | 77 | 3.2 | 9.7 | 0.00 | 0.00 | 0.00 | 42 | 1022.1 |
| 20260507160604 | 25 | 77 | 3.2 | 9.7 | 0.00 | 0.00 | 0.00 | 42 | 1022.1 |
| 20260507160104 | 26 | 77 | 3.2 | 9.7 | 0.00 | 0.00 | 0.00 | 43 | 1022.2 |
| 20260507155604 | 26 | 77 | 3.2 | 9.7 | 0.00 | 0.00 | 0.00 | 39 | 1022.3 |
| 20260507155103 | 26 | 77 | 3.2 | 9.7 | 0.00 | 0.00 | 0.00 | 42 | 1022.3 |
| 20260507154104 | 25 | 77 | 3.2 | 9.7 | 0.00 | 0.00 | 0.00 | 43 | 1022.4 |
| 20260507153104 | 24 | 77 | 3.2 | 9.7 | 0.00 | 0.00 | 0.00 | 45 | 1022.5 |
| 20260507152604 | 23 | 77 | 3.2 | 9.7 | 0.00 | 0.00 | 0.00 | 45 | 1022.5 |
| 20260507152104 | 23 | 77 | 3.2 | 9.7 | 0.00 | 0.00 | 0.00 | 46 | 1022.5 |
| 20260507151604 | 23 | 77 | 3.2 | 9.7 | 0.00 | 0.00 | 0.00 | 47 | 1022.6 |
| 20260507151104 | 22 | 77 | 3.2 | 9.7 | 0.00 | 0.00 | 0.00 | 48 | 1022.6 |
| 20260507150104 | 22 | 77 | 3.2 | 9.7 | 0.00 | 0.00 | 0.00 | 50 | 1022.6 |
| 20260507145604 | 21 | 77 | 3.2 | 9.7 | 0.00 | 0.00 | 0.00 | 51 | 1022.6 |
| 20260507145104 | 21 | 77 | 3.2 | 9.7 | 0.00 | 0.00 | 0.00 | 52 | 1022.7 |
| 20260507144604 | 21 | 77 | 3.2 | 9.7 | 0.00 | 0.00 | 0.00 | 53 | 1022.7 |
| 20260507144104 | 20 | 77 | 3.2 | 9.7 | 0.00 | 0.00 | 0.00 | 53 | 1022.7 |
| 20260507143103 | 20 | 77 | 3.2 | 9.7 | 0.00 | 0.00 | 0.00 | 54 | 1022.8 |
| 20260507142104 | 19 | 77 | 3.2 | 9.7 | 0.00 | 0.00 | 0.00 | 56 | 1022.7 |
| 20260507141103 | 18 | 77 | 3.2 | 9.7 | 0.00 | 0.00 | 0.00 | 58 | 1022.7 |
| 20260507140604 | 18 | 77 | 3.2 | 9.7 | 0.00 | 0.00 | 0.00 | 59 | 1022.7 |
| 20260507140104 | 18 | 77 | 3.2 | 9.7 | 0.00 | 0.00 | 0.00 | 59 | 1022.8 |
| 20260507134605 | 18 | 77 | 3.2 | 9.7 | 0.00 | 0.00 | 0.00 | 61 | 1022.7 |
| 20260507134104 | 17 | 77 | 3.2 | 9.7 | 0.00 | 0.00 | 0.00 | 61 | 1022.7 |
| 20260507133604 | 17 | 77 | 3.2 | 9.7 | 0.00 | 0.00 | 0.00 | 63 | 1022.7 |
| 20260507133104 | 16 | 77 | 3.2 | 9.7 | 0.00 | 0.00 | 0.00 | 62 | 1022.7 |
| 20260507132604 | 16 | 77 | 3.2 | 9.7 | 0.00 | 0.00 | 0.00 | 63 | 1022.6 |
| 20260507132104 | 16 | 77 | 3.2 | 9.7 | 0.00 | 0.00 | 0.00 | 64 | 1022.6 |
| 20260507131604 | 16 | 77 | 3.2 | 9.7 | 0.00 | 0.00 | 0.00 | 64 | 1022.6 |
| 20260507131105 | 16 | 77 | 3.2 | 9.7 | 0.00 | 0.00 | 0.00 | 65 | 1022.6 |
| 20260507130603 | 15 | 77 | 3.2 | 9.7 | 0.00 | 0.00 | 0.00 | 66 | 1022.6 |
| 20260507130103 | 15 | 77 | 3.2 | 9.7 | 0.00 | 0.00 | 0.00 | 67 | 1022.6 |
| 20260507125604 | 15 | 77 | 3.2 | 9.7 | 0.00 | 0.00 | 0.00 | 66 | 1022.6 |
| 20260507125104 | 15 | 77 | 3.2 | 9.7 | 0.00 | 0.00 | 0.00 | 66 | 1022.5 |
| 20260507124604 | 15 | 77 | 3.2 | 9.7 | 0.00 | 0.00 | 0.00 | 66 | 1022.5 |
| 20260507124104 | 15 | 77 | 3.2 | 9.7 | 0.00 | 0.00 | 0.00 | 67 | 1022.6 |
| 20260507123104 | 15 | 77 | 3.2 | 9.7 | 0.00 | 0.00 | 0.00 | 67 | 1022.5 |
| 20260507122604 | 15 | 77 | 3.2 | 9.7 | 0.00 | 0.00 | 0.00 | 66 | 1022.5 |
| 20260507122104 | 15 | 77 | 3.2 | 9.7 | 0.00 | 0.00 | 0.00 | 66 | 1022.4 |
| 20260507121604 | 15 | 77 | 3.2 | 9.7 | 0.00 | 0.00 | 0.00 | 66 | 1022.4 |
| 20260507121104 | 15 | 77 | 3.2 | 9.7 | 0.00 | 0.00 | 0.00 | 67 | 1022.4 |
| 20260507120603 | 15 | 77 | 3.2 | 9.7 | 0.00 | 0.00 | 0.00 | 66 | 1022.4 |
| 20260507120104 | 16 | 77 | 3.2 | 9.7 | 0.00 | 0.00 | 0.00 | 66 | 1022.4 |
| 20260507115604 | 16 | 77 | 3.2 | 9.7 | 0.00 | 0.00 | 0.00 | 65 | 1022.3 |
| 20260507115104 | 16 | 77 | 3.2 | 9.7 | 0.00 | 0.00 | 0.00 | 64 | 1022.3 |
| 20260507114604 | 16 | 77 | 3.2 | 9.7 | 0.00 | 0.00 | 0.00 | 64 | 1022.3 |
| 20260507114104 | 16 | 77 | 3.2 | 9.7 | 0.00 | 0.00 | 0.00 | 63 | 1022.2 |
| 20260507113603 | 15 | 77 | 3.2 | 9.7 | 0.00 | 0.00 | 0.00 | 64 | 1022.2 |
| 20260507113104 | 15 | 77 | 3.2 | 9.7 | 0.00 | 0.00 | 0.00 | 66 | 1022.2 |
| 20260507112604 | 15 | 77 | 3.2 | 9.7 | 0.00 | 0.00 | 0.00 | 67 | 1022.2 |
| 20260507112104 | 15 | 77 | 3.2 | 9.7 | 0.00 | 0.00 | 0.00 | 69 | 1022.2 |
| 20260507111603 | 15 | 77 | 3.2 | 9.7 | 0.00 | 0.00 | 0.00 | 68 | 1022.2 |
| 20260507111104 | 16 | 77 | 3.2 | 9.7 | 0.00 | 0.00 | 0.00 | 66 | 1022.2 |
| 20260507110604 | 16 | 77 | 3.2 | 9.7 | 0.00 | 0.00 | 0.00 | 64 | 1022.0 |
| 20260507110103 | 16 | 77 | 3.2 | 9.7 | 0.00 | 0.00 | 0.00 | 64 | 1021.9 |
| 20260507105604 | 16 | 77 | 3.2 | 9.7 | 0.00 | 0.00 | 0.00 | 64 | 1021.9 |
| 20260507105104 | 16 | 77 | 3.2 | 9.7 | 0.00 | 0.00 | 0.00 | 64 | 1021.9 |
| 20260507104604 | 16 | 77 | 3.2 | 9.7 | 0.00 | 0.00 | 0.00 | 64 | 1021.9 |
| 20260507104104 | 16 | 77 | 3.2 | 9.7 | 0.00 | 0.00 | 0.00 | 64 | 1021.9 |
| 20260507103604 | 16 | 77 | 3.2 | 9.7 | 0.00 | 0.00 | 0.00 | 63 | 1021.9 |
| 20260507103104 | 16 | 77 | 3.2 | 9.7 | 0.00 | 0.00 | 0.00 | 64 | 1021.9 |
| 20260507102604 | 16 | 77 | 3.2 | 9.7 | 0.00 | 0.00 | 0.00 | 64 | 1021.8 |
| 20260507102104 | 16 | 77 | 3.2 | 9.7 | 0.00 | 0.00 | 0.00 | 64 | 1021.8 |
| 20260507101604 | 16 | 77 | 3.2 | 9.7 | 0.00 | 0.00 | 0.00 | 65 | 1021.8 |
| 20260507101104 | 15 | 77 | 3.2 | 9.7 | 0.00 | 0.00 | 0.00 | 66 | 1021.8 |
| 20260507100103 | 16 | 77 | 3.2 | 9.7 | 0.00 | 0.00 | 0.00 | 66 | 1021.9 |
| 20260507095604 | 16 | 77 | 3.2 | 9.7 | 0.00 | 0.00 | 0.00 | 65 | 1021.8 |
| 20260507095103 | 17 | 77 | 3.2 | 9.7 | 0.00 | 0.00 | 0.00 | 63 | 1021.8 |
| 20260507094604 | 17 | 77 | 3.2 | 9.7 | 0.00 | 0.00 | 0.00 | 60 | 1021.8 |
| 20260507094104 | 17 | 77 | 3.2 | 9.7 | 0.00 | 0.00 | 0.00 | 60 | 1021.7 |
| 20260507093604 | 17 | 77 | 3.2 | 9.7 | 0.00 | 0.00 | 0.00 | 61 | 1021.7 |
| 20260507093104 | 17 | 77 | 3.2 | 9.7 | 0.00 | 0.00 | 0.00 | 62 | 1021.8 |
| 20260507092604 | 17 | 77 | 3.2 | 9.7 | 0.00 | 0.00 | 0.00 | 60 | 1021.8 |
| 20260507092104 | 17 | 77 | 3.2 | 9.7 | 0.00 | 0.00 | 0.00 | 58 | 1021.7 |
| 20260507091604 | 17 | 77 | 3.2 | 9.7 | 0.00 | 0.00 | 0.00 | 59 | 1021.7 |
| 20260507091104 | 17 | 77 | 3.2 | 9.7 | 0.00 | 0.00 | 0.00 | 59 | 1021.7 |
| 20260507090604 | 17 | 77 | 3.2 | 9.7 | 0.00 | 0.00 | 0.00 | 58 | 1021.6 |
| 20260507090105 | 17 | 77 | 3.2 | 9.7 | 0.00 | 0.00 | 0.00 | 57 | 1021.7 |
| 20260507085604 | 18 | 77 | 3.2 | 9.7 | 0.00 | 0.00 | 0.00 | 58 | 1021.7 |
| 20260507085104 | 18 | 77 | 3.2 | 9.7 | 0.00 | 0.00 | 0.00 | 58 | 1021.7 |
| 20260507084604 | 18 | 77 | 3.2 | 9.7 | 0.00 | 0.00 | 0.00 | 57 | 1021.7 |
| 20260507084104 | 18 | 77 | 3.2 | 9.7 | 0.00 | 0.00 | 0.00 | 57 | 1021.7 |
| 20260507083603 | 18 | 77 | 3.2 | 9.7 | 0.00 | 0.00 | 0.00 | 57 | 1021.7 |
| 20260507083103 | 18 | 77 | 3.2 | 9.7 | 0.00 | 0.00 | 0.00 | 57 | 1021.7 |
| 20260507082103 | 17 | 77 | 3.2 | 9.7 | 0.00 | 0.00 | 0.00 | 58 | 1021.8 |
| 20260507081603 | 17 | 77 | 3.2 | 9.7 | 0.00 | 0.00 | 0.00 | 59 | 1021.9 |
| 20260507081104 | 18 | 77 | 3.2 | 9.7 | 0.00 | 0.00 | 0.00 | 60 | 1022.0 |
| 20260507080604 | 18 | 77 | 3.2 | 9.7 | 0.00 | 0.00 | 0.00 | 59 | 1022.0 |
| 20260507080104 | 18 | 77 | 3.2 | 9.7 | 0.00 | 0.00 | 0.00 | 56 | 1022.0 |
| 20260507075603 | 18 | 77 | 3.2 | 9.7 | 0.00 | 0.00 | 0.00 | 58 | 1022.1 |
| 20260507075104 | 18 | 77 | 3.2 | 9.7 | 0.00 | 0.00 | 0.00 | 59 | 1022.2 |
| 20260507074104 | 18 | 77 | 3.2 | 9.7 | 0.00 | 0.00 | 0.00 | 58 | 1022.2 |
| 20260507073604 | 18 | 77 | 3.2 | 9.7 | 0.00 | 0.00 | 0.00 | 58 | 1022.3 |
| 20260507073103 | 18 | 77 | 3.2 | 9.7 | 0.00 | 0.00 | 0.00 | 57 | 1022.2 |
| 20260507072604 | 18 | 77 | 3.2 | 9.7 | 0.00 | 0.00 | 0.00 | 58 | 1022.3 |
| 20260507072104 | 18 | 77 | 3.2 | 9.7 | 0.00 | 0.00 | 0.00 | 59 | 1022.4 |
| 20260507071104 | 19 | 77 | 3.2 | 9.7 | 0.00 | 0.00 | 0.00 | 54 | 1022.4 |
| 20260507070104 | 19 | 77 | 3.2 | 9.7 | 0.00 | 0.00 | 0.00 | 53 | 1022.4 |
| 20260507065604 | 19 | 77 | 3.2 | 9.7 | 0.00 | 0.00 | 0.00 | 52 | 1022.5 |
| 20260507065104 | 20 | 77 | 3.2 | 9.7 | 0.00 | 0.00 | 0.00 | 52 | 1022.6 |
| 20260507064604 | 20 | 77 | 3.2 | 9.7 | 0.00 | 0.00 | 0.00 | 52 | 1022.6 |
| 20260507063604 | 20 | 77 | 3.2 | 9.7 | 0.00 | 0.00 | 0.00 | 52 | 1022.6 |
| 20260507063104 | 20 | 77 | 3.2 | 9.7 | 0.00 | 0.00 | 0.00 | 51 | 1022.6 |
| 20260507062604 | 20 | 77 | 3.2 | 9.7 | 0.00 | 0.00 | 0.00 | 51 | 1022.7 |
| 20260507062103 | 20 | 77 | 3.2 | 9.7 | 0.00 | 0.00 | 0.00 | 50 | 1022.6 |
| 20260507061604 | 20 | 77 | 3.2 | 9.7 | 0.00 | 0.00 | 0.00 | 51 | 1022.6 |
| 20260507061104 | 21 | 77 | 3.2 | 9.7 | 0.00 | 0.00 | 0.00 | 52 | 1022.6 |
| 20260507060104 | 21 | 77 | 3.2 | 9.7 | 0.00 | 0.00 | 0.00 | 49 | 1022.7 |
| 20260507055603 | 21 | 77 | 3.2 | 9.7 | 0.00 | 0.00 | 0.00 | 48 | 1022.7 |
| 20260507055104 | 21 | 77 | 3.2 | 9.7 | 0.00 | 0.00 | 0.00 | 49 | 1022.7 |
| 20260507054604 | 21 | 77 | 3.2 | 9.7 | 0.00 | 0.00 | 0.00 | 49 | 1022.7 |
| 20260507054104 | 21 | 77 | 3.2 | 9.7 | 0.00 | 0.00 | 0.00 | 49 | 1022.8 |
| 20260507053604 | 22 | 77 | 3.2 | 9.7 | 0.00 | 0.00 | 0.00 | 49 | 1022.7 |
| 20260507053104 | 22 | 77 | 3.2 | 9.7 | 0.00 | 0.00 | 0.00 | 48 | 1022.7 |
| 20260507052104 | 22 | 77 | 3.2 | 9.7 | 0.00 | 0.00 | 0.00 | 47 | 1022.5 |
| 20260507051603 | 22 | 77 | 3.2 | 9.7 | 0.00 | 0.00 | 0.00 | 48 | 1022.7 |
| 20260507051104 | 22 | 77 | 3.2 | 9.7 | 0.00 | 0.00 | 0.00 | 48 | 1022.7 |
| 20260507050604 | 22 | 77 | 3.2 | 9.7 | 0.00 | 0.00 | 0.00 | 49 | 1022.7 |
| 20260507050104 | 22 | 77 | 3.2 | 9.7 | 0.00 | 0.00 | 0.00 | 49 | 1022.7 |
| 20260507045104 | 23 | 77 | 3.2 | 9.7 | 0.00 | 0.00 | 0.00 | 45 | 1022.6 |
| 20260507044604 | 23 | 77 | 3.2 | 9.7 | 0.00 | 0.00 | 0.00 | 45 | 1022.7 |
| 20260507044104 | 23 | 77 | 3.2 | 9.7 | 0.00 | 0.00 | 0.00 | 43 | 1022.7 |
| 20260507043603 | 23 | 77 | 3.2 | 9.7 | 0.00 | 0.00 | 0.00 | 43 | 1022.6 |
| 20260507043102 | 23 | 77 | 3.2 | 9.7 | 0.00 | 0.00 | 0.00 | 43 | 1022.5 |
| 20260507042103 | 23 | 77 | 3.2 | 9.7 | 0.00 | 0.00 | 0.00 | 44 | 1022.5 |
| 20260507041603 | 23 | 77 | 3.2 | 9.7 | 0.00 | 0.00 | 0.00 | 45 | 1022.5 |
| 20260507040603 | 22 | 77 | 3.2 | 9.7 | 0.00 | 0.00 | 0.00 | 46 | 1022.5 |
| 20260507035603 | 23 | 77 | 3.2 | 9.7 | 0.00 | 0.00 | 0.00 | 47 | 1022.4 |
| 20260507035103 | 23 | 77 | 3.2 | 9.7 | 0.00 | 0.00 | 0.00 | 45 | 1022.3 |
| 20260507034603 | 23 | 77 | 3.2 | 9.7 | 0.00 | 0.00 | 0.00 | 44 | 1022.4 |
| 20260507034103 | 23 | 77 | 3.2 | 9.7 | 0.00 | 0.00 | 0.00 | 44 | 1022.4 |
| 20260507033603 | 23 | 77 | 3.2 | 9.7 | 0.00 | 0.00 | 0.00 | 45 | 1022.4 |
| 20260507033102 | 23 | 77 | 3.2 | 9.7 | 0.00 | 0.00 | 0.00 | 45 | 1022.3 |
| 20260507032102 | 24 | 77 | 3.2 | 9.7 | 0.00 | 0.00 | 0.00 | 43 | 1022.2 |
| 20260507031603 | 24 | 77 | 3.2 | 9.7 | 0.00 | 0.00 | 0.00 | 43 | 1022.1 |
| 20260507031103 | 24 | 77 | 3.2 | 9.7 | 0.00 | 0.00 | 0.00 | 43 | 1022.1 |
| 20260507030603 | 24 | 77 | 3.2 | 9.7 | 0.00 | 0.00 | 0.00 | 43 | 1022.0 |
| 20260507025602 | 24 | 77 | 3.2 | 9.7 | 0.00 | 0.00 | 0.00 | 42 | 1021.9 |
| 20260507025103 | 24 | 77 | 3.2 | 9.7 | 0.00 | 0.00 | 0.00 | 41 | 1021.9 |
| 20260507024103 | 24 | 77 | 3.2 | 9.7 | 0.00 | 0.00 | 0.00 | 42 | 1021.8 |
| 20260507023103 | 24 | 77 | 3.2 | 9.7 | 0.00 | 0.00 | 0.00 | 42 | 1021.7 |
| 20260507022603 | 24 | 77 | 3.2 | 9.7 | 0.00 | 0.00 | 0.00 | 43 | 1021.6 |
| 20260507021103 | 26 | 77 | 3.2 | 9.7 | 0.00 | 0.00 | 0.00 | 40 | 1021.3 |
| 20260507020602 | 26 | 77 | 3.2 | 9.7 | 0.00 | 0.00 | 0.00 | 37 | 1021.2 |
| 20260507015602 | 26 | 77 | 3.2 | 9.7 | 0.00 | 0.00 | 0.00 | 36 | 1021.2 |
| 20260507015104 | 26 | 77 | 3.2 | 9.7 | 0.00 | 0.00 | 0.00 | 36 | 1021.1 |
| 20260507014103 | 27 | 77 | 3.2 | 9.7 | 0.00 | 0.00 | 0.00 | 36 | 1020.9 |
| 20260507013602 | 27 | 77 | 3.2 | 9.7 | 0.00 | 0.00 | 0.00 | 36 | 1020.9 |
| 20260507012603 | 27 | 77 | 3.2 | 9.7 | 0.00 | 0.00 | 0.00 | 35 | 1020.7 |
| 20260507012103 | 27 | 77 | 3.2 | 9.7 | 0.00 | 0.00 | 0.00 | 35 | 1020.6 |
| 20260507011103 | 27 | 77 | 3.2 | 9.7 | 0.00 | 0.00 | 0.00 | 35 | 1020.5 |
| 20260507010603 | 27 | 77 | 3.2 | 9.7 | 0.00 | 0.00 | 0.00 | 35 | 1020.4 |
| 20260507005603 | 28 | 77 | 3.2 | 9.7 | 0.00 | 0.00 | 0.00 | 34 | 1020.3 |
| 20260507005103 | 28 | 77 | 3.2 | 9.7 | 0.00 | 0.00 | 0.00 | 34 | 1020.3 |
| 20260507004602 | 28 | 77 | 3.2 | 9.7 | 0.00 | 0.00 | 0.00 | 34 | 1020.3 |
| 20260507004103 | 28 | 77 | 3.2 | 9.7 | 0.00 | 0.00 | 0.00 | 34 | 1020.3 |
| 20260507003603 | 28 | 77 | 3.2 | 9.7 | 0.00 | 0.00 | 0.00 | 34 | 1020.2 |
| 20260507003103 | 28 | 77 | 3.2 | 9.7 | 0.00 | 0.00 | 0.00 | 33 | 1020.2 |
| 20260507002603 | 28 | 77 | 3.2 | 9.7 | 0.00 | 0.00 | 0.00 | 33 | 1020.1 |
| 20260507002103 | 28 | 77 | 3.2 | 9.7 | 0.00 | 0.00 | 0.00 | 33 | 1020.0 |
| 20260507001603 | 28 | 77 | 3.2 | 9.7 | 0.00 | 0.00 | 0.00 | 33 | 1019.9 |
| 20260507001102 | 29 | 77 | 3.2 | 9.7 | 0.00 | 0.00 | 0.00 | 33 | 1019.9 |
| 20260507000602 | 29 | 77 | 3.2 | 9.7 | 0.00 | 0.00 | 0.00 | 33 | 1019.9 |
| 20260506235102 | 29 | 77 | 3.2 | 9.7 | 0.00 | 0.00 | 0.00 | 32 | 1019.8 |
| 20260506234603 | 29 | 77 | 3.2 | 9.7 | 0.00 | 0.00 | 0.00 | 32 | 1019.9 |
| 20260506233103 | 30 | 77 | 3.2 | 9.7 | 0.00 | 0.00 | 0.00 | 32 | 1019.8 |
| 20260506232602 | 30 | 77 | 3.2 | 9.7 | 0.00 | 0.00 | 0.00 | 32 | 1019.8 |
| 20260506232103 | 29 | 77 | 3.2 | 9.7 | 0.00 | 0.00 | 0.00 | 32 | 1019.8 |
| 20260506231603 | 30 | 77 | 3.2 | 9.7 | 0.00 | 0.00 | 0.00 | 32 | 1019.7 |
| 20260506231103 | 30 | 77 | 3.2 | 9.7 | 0.00 | 0.00 | 0.00 | 32 | 1019.6 |
| 20260506230603 | 30 | 77 | 3.2 | 9.7 | 0.00 | 0.00 | 0.00 | 32 | 1019.7 |
| 20260506230103 | 30 | 77 | 3.2 | 9.7 | 0.00 | 0.00 | 0.00 | 32 | 1019.6 |
| 20260506225603 | 30 | 77 | 3.2 | 9.7 | 0.00 | 0.00 | 0.00 | 32 | 1019.5 |
| 20260506225103 | 30 | 77 | 3.2 | 9.7 | 0.00 | 0.00 | 0.00 | 31 | 1019.3 |
| 20260506224604 | 30 | 77 | 3.2 | 9.7 | 0.00 | 0.00 | 0.00 | 32 | 1019.3 |
| 20260506224103 | 30 | 77 | 3.2 | 9.7 | 0.00 | 0.00 | 0.00 | 31 | 1019.3 |
| 20260506223103 | 30 | 77 | 3.2 | 9.7 | 0.00 | 0.00 | 0.00 | 31 | 1019.4 |
| 20260506222603 | 30 | 77 | 3.2 | 9.7 | 0.00 | 0.00 | 0.00 | 31 | 1019.4 |
| 20260506221603 | 30 | 77 | 3.2 | 9.7 | 0.00 | 0.00 | 0.00 | 31 | 1019.5 |
| 20260506221103 | 30 | 77 | 3.2 | 9.7 | 0.00 | 0.00 | 0.00 | 31 | 1019.5 |
| 20260506220603 | 30 | 77 | 3.2 | 9.7 | 0.00 | 0.00 | 0.00 | 31 | 1019.5 |
| 20260506215603 | 30 | 77 | 3.2 | 9.7 | 0.00 | 0.00 | 0.00 | 31 | 1019.6 |
| 20260506215103 | 30 | 77 | 3.2 | 9.7 | 0.00 | 0.00 | 0.00 | 31 | 1019.6 |
| 20260506214603 | 30 | 77 | 3.2 | 9.7 | 0.00 | 0.00 | 0.00 | 31 | 1019.6 |
| 20260506214103 | 30 | 77 | 3.2 | 9.7 | 0.00 | 0.00 | 0.00 | 32 | 1019.7 |
| 20260506213603 | 30 | 77 | 3.2 | 9.7 | 0.00 | 0.00 | 0.00 | 32 | 1019.7 |
| 20260506213103 | 30 | 77 | 3.2 | 9.7 | 0.00 | 0.00 | 0.00 | 31 | 1019.8 |
| 20260506212603 | 30 | 77 | 3.2 | 9.7 | 0.00 | 0.00 | 0.00 | 31 | 1019.8 |
| 20260506212102 | 30 | 77 | 3.2 | 9.7 | 0.00 | 0.00 | 0.00 | 32 | 1019.9 |
| 20260506211102 | 29 | 77 | 3.2 | 9.7 | 0.00 | 0.00 | 0.00 | 32 | 1020.0 |
| 20260506210602 | 29 | 77 | 3.2 | 9.7 | 0.00 | 0.00 | 0.00 | 32 | 1020.0 |
| 20260506210103 | 29 | 77 | 3.2 | 9.7 | 0.00 | 0.00 | 0.00 | 32 | 1020.0 |
| 20260506205603 | 30 | 77 | 3.2 | 9.7 | 0.00 | 0.00 | 0.00 | 33 | 1020.1 |
| 20260506205103 | 30 | 77 | 3.2 | 9.7 | 0.00 | 0.00 | 0.00 | 32 | 1020.2 |
| 20260506204103 | 30 | 77 | 3.2 | 9.7 | 0.00 | 0.00 | 0.00 | 33 | 1020.3 |
| 20260506203602 | 30 | 77 | 3.2 | 9.7 | 0.00 | 0.00 | 0.00 | 32 | 1020.4 |
| 20260506203103 | 29 | 77 | 3.2 | 9.7 | 0.00 | 0.00 | 0.00 | 32 | 1020.4 |
| 20260506202603 | 29 | 77 | 3.2 | 9.7 | 0.00 | 0.00 | 0.00 | 33 | 1020.4 |
| 20260506202102 | 29 | 77 | 3.2 | 9.7 | 0.00 | 0.00 | 0.00 | 33 | 1020.5 |
| 20260506201103 | 29 | 77 | 3.2 | 9.7 | 0.00 | 0.00 | 0.00 | 33 | 1020.7 |
| 20260506200603 | 29 | 77 | 3.2 | 9.7 | 0.00 | 0.00 | 0.00 | 33 | 1020.8 |
| 20260506195603 | 28 | 77 | 3.2 | 9.7 | 0.00 | 0.00 | 0.00 | 33 | 1020.9 |
| 20260506195103 | 29 | 77 | 3.2 | 9.7 | 0.00 | 0.00 | 0.00 | 33 | 1020.9 |
| 20260506194603 | 28 | 77 | 3.2 | 9.7 | 0.00 | 0.00 | 0.00 | 34 | 1021.1 |
| 20260506194103 | 28 | 77 | 3.2 | 9.7 | 0.00 | 0.00 | 0.00 | 34 | 1021.1 |
| 20260506193603 | 28 | 77 | 3.2 | 9.7 | 0.00 | 0.00 | 0.00 | 33 | 1021.2 |
| 20260506193103 | 28 | 77 | 3.2 | 9.7 | 0.00 | 0.00 | 0.00 | 34 | 1021.3 |
| 20260506192602 | 28 | 77 | 3.2 | 9.7 | 0.00 | 0.00 | 0.00 | 34 | 1021.4 |
| 20260506192103 | 28 | 77 | 3.2 | 9.7 | 0.00 | 0.00 | 0.00 | 33 | 1021.4 |
| 20260506191603 | 28 | 77 | 3.2 | 9.7 | 0.00 | 0.00 | 0.00 | 34 | 1021.4 |
| 20260506191103 | 28 | 77 | 3.2 | 9.7 | 0.00 | 0.00 | 0.00 | 34 | 1021.4 |
| 20260506190603 | 28 | 77 | 3.2 | 9.7 | 0.00 | 0.00 | 0.00 | 34 | 1021.6 |